Location: Hurecourt
(47.9030°N, 6.0653°E)
Time: 20:46:32
(UTC+00:00)

CZ-2D R/B - Pass Details

Date: 14 July 2020
Orbit: 792 x 844 km, 98.7° (Epoch: 14 August)

Event Time Altitude Azimuth Distance (km) Brightness Sun altitude
Rises 02:18:58 0° 7° (N) 3,346 6.4 -12.0°
Reaches altitude 10° 02:21:28 10° 359° (N) 2,418 5.4 -11.8°
Maximum altitude 02:26:15 35° 296° (WNW) 1,319 3.1 -11.3°
Enters shadow 02:30:27 13° 235° (SW) 2,220 3.8 -10.9°
